Location: *
(45.1961°N, 1.9694°E)
Time: 16:20:33
(UTC+00:00)

Cosmos 2360 - Pass Details

Date: 25 August 2019
Orbit: 845 x 856 km, 70.8° (Epoch: 23 October)

Event Time Altitude Azimuth Distance (km) Brightness Sun altitude
Rises 20:59:24 0° 333° (NNW) 3,419 8.6 -21.7°
Reaches altitude 10° 21:01:51 10° 332° (NNW) 2,481 7.6 -22.0°
Maximum altitude 21:07:33 82° 246° (WSW) 864 4.2 -22.7°
Enters shadow 21:09:12 48° 166° (SSE) 1,097 4.4 -22.9°
